Location: Seattle
(47.6064°N, 122.3308°W)
Time: 00:43:59
(UTC-08:00)

Tiros 1 - Pass Details

Date: 28 November 2020
Orbit: 630 x 663 km, 48.4° (Epoch: 28 January)

Event Time Altitude Azimuth Distance (km) Brightness Sun altitude
Rises 21:39:43 0° 285° (WNW) 2,978 - -52.0°
Reaches altitude 10° 21:42:26 10° 271° (W) 2,058 - -52.4°
Maximum altitude 21:46:11 24° 219° (SW) 1,352 - -52.9°
Drops below altitude 10° 21:49:54 10° 166° (SSE) 2,032 - -53.5°
Sets 21:52:34 0° 152° (SSE) 2,931 - -53.8°
